Location: Unspecified
(57.6483°N, 3.3184°W)
Time: 20:03:36
(UTC+01:00)

N. Korean satellite - Pass Details

Date: 28 February 2021
Orbit: 452 x 499 km, 97.2° (Epoch: 20 April)

Event Time Altitude Azimuth Distance (km) Brightness Sun altitude
Rises 05:07:13 0° 22° (NNE) 2,507 10.7 -17.1°
Reaches altitude 10° 05:09:29 10° 35° (NE) 1,634 9.9 -16.8°
Maximum altitude 05:12:31 27° 95° (E) 942 8.8 -16.4°
Drops below altitude 10° 05:15:34 10° 155° (SSE) 1,644 9.4 -16.0°
Sets 05:17:51 0° 167° (SSE) 2,527 10.2 -15.7°
